Wind_Speed
33 35 35 35 36 38 39 39 38 38 40 40 40 40 39 38 38 37 37 38 38 38 38 38 38 38 39 40 41 43 43 41 42 43 41 40 39 39 39 38 37 38 38 39
31 31 31 33 34 34 34 34 35 36 38 40 39 39 38 38 38 38 39 39 40 41 41 41 41 41 41 42 43 44 45 45 45 45 44 43 42 40 39 39 38 38 39 39
28 28 29 29 29 30 31 32 32 34 35 37 39 39 38 38 39 39 40 42 43 44 45 45 45 46 45 45 46 46 47 47 47 47 47 45 44 42 40 40 40 40 40 40
26 26 26 26 26 27 27 28 29 30 33 34 37 41 38 39 41 43 44 45 47 48 49 50 50 50 50 49 49 49 49 50 50 50 48 47 45 44 42 41 41 41 41 41
24 23 23 23 23 24 25 25 27 29 32 35 36 41 40 42 43 46 48 49 51 52 53 54 54 54 54 53 53 52 51 51 52 51 49 49 48 46 44 43 42 41 41 42
24 22 22 22 22 22 23 25 27 30 33 36 37 42 42 44 47 49 51 52 53 54 55 55 56 56 56 56 55 54 54 53 52 51 50 50 49 48 46 44 43 42 42 42
23 22 22 21 22 22 24 26 29 32 35 37 40 43 42 44 47 49 51 53 54 55 55 55 56 57 57 57 57 57 55 54 53 51 50 50 50 48 47 45 44 43 42 42
23 23 22 22 22 23 25 27 30 34 38 40 42 44 42 44 47 50 52 53 54 55 56 56 55 55 56 57 58 57 56 54 53 52 50 50 49 48 47 46 45 44 42 42
24 23 22 22 23 25 27 29 32 35 39 41 41 42 42 44 46 48 51 52 54 55 55 55 54 53 53 55 56 57 56 55 53 52 51 49 48 47 46 45 44 43 42 42
24 23 23 23 24 26 28 29 32 34 37 40 40 40 40 40 42 45 49 51 51 51 51 51 51 51 50 51 54 55 55 54 53 52 50 48 47 46 45 45 44 43 42 41
23 23 22 23 24 26 28 29 31 33 35 38 39 37 36 38 41 43 46 48 50 51 50 48 47 47 47 48 50 52 53 53 52 50 48 46 45 45 44 44 43 42 41 40
22 22 21 23 25 26 26 27 29 31 34 35 37 34 31 34 38 41 44 46 48 49 48 46 44 43 44 44 46 48 50 51 49 47 45 44 44 43 43 42 42 41 40 39
22 21 21 23 24 24 23 25 28 30 31 31 33 30 30 33 37 40 43 44 45 46 45 43 40 39 39 40 42 44 46 46 45 43 43 42 42 42 41 41 40 39 39 38
21 20 20 22 22 21 20 22 24 26 27 27 27 28 26 32 36 38 39 40 40 40 39 37 35 33 33 34 37 39 40 41 40 41 41 40 40 40 39 39 37 37 37 38
19 18 19 19 20 19 17 18 20 21 23 25 24 26 27 30 33 34 34 34 33 31 28 26 25 25 26 28 31 34 36 37 37 38 38 37 37 36 36 35 35 35 36 38
18 17 17 17 17 16 15 16 16 17 20 22 23 24 26 28 28 29 28 26 24 22 17 15 14 16 19 23 27 30 32 33 34 34 34 33 33 32 32 33 33 34 36 37
16 15 14 14 14 13 12 13 14 15 16 18 20 22 23 24 24 23 23 21 16 11 5 3 7 12 16 19 24 27 29 30 30 29 29 29 29 29 29 30 31 33 35 37
15 14 12 12 12 11 9 10 10 12 13 15 18 20 22 23 21 20 20 18 15 10 8 10 11 13 15 18 22 24 25 25 25 25 24 24 25 25 27 28 30 33 35 38
14 12 11 10 9 9 7 7 8 10 11 13 15 17 20 20 20 19 19 18 17 17 16 16 16 17 18 19 19 20 20 20 19 19 19 20 21 23 26 28 31 34 36 37
13 11 10 9 8 7 6 6 7 9 9 11 12 15 17 19 18 18 18 17 17 17 17 18 18 18 18 18 17 16 15 14 14 14 15 18 21 24 26 28 30 32 35 36
12 10 9 9 8 6 5 6 6 7 9 10 12 14 14 15 16 16 15 16 15 15 15 15 16 16 16 16 15 13 12 11 12 14 17 19 21 24 26 27 30 32 34 37
12 11 9 9 8 6 5 6 6 7 9 10 10 12 12 13 13 13 12 12 12 13 13 13 13 13 13 12 12 12 12 13 14 16 17 19 21 23 25 27 30 32 34 37
12 11 10 9 8 7 6 6 7 7 8 9 9 9 10 10 10 10 10 10 10 9 9 10 10 10 10 9 9 10 10 11 12 14 16 18 20 23 25 27 30 32 35 38
13 11 10 10 9 8 7 7 7 7 8 8 8 8 8 8 7 7 8 8 8 7 7 6 6 5 5 5 5 6 7 8 10 13 15 17 20 22 25 28 31 33 36 38
14 12 11 10 9 9 8 8 7 7 7 8 8 7 7 7 5 5 5 5 6 6 5 4 4 3 2 1 2 3 6 8 10 13 16 18 21 24 27 29 32 34 36 37
15 14 12 11 10 10 10 9 9 8 8 8 8 7 6 5 4 3 3 3 3 3 3 3 2 1 1 2 4 6 8 11 13 15 18 20 23 25 28 30 32 34 36 38
Wind_Direction
224 226 227 230 232 234 236 237 239 240 241 240 239 240 241 242 245 247 249 252 254 256 258 259 259 259 259 259 259 259 260 260 261 263 264 266 266 267 267 268 269 270 271 273
222 224 225 227 230 233 236 238 239 240 242 243 241 241 243 245 247 249 251 254 256 257 258 259 260 260 261 261 260 259 259 258 258 260 261 261 263 265 267 267 269 270 272 273
219 220 223 226 228 231 234 237 239 242 245 248 247 243 245 249 252 254 256 257 258 259 259 260 260 261 261 262 261 260 258 257 256 256 257 258 261 263 265 267 268 269 270 272
216 217 220 223 226 230 234 238 243 247 249 251 254 252 246 254 257 259 260 260 261 262 262 262 261 261 262 261 261 260 258 256 255 255 255 255 257 260 262 263 265 267 270 273
213 214 217 221 225 231 237 242 248 252 256 257 259 262 255 260 263 265 265 265 265 264 263 263 262 262 261 260 259 258 258 256 254 254 253 252 253 256 258 261 263 266 268 271
212 213 217 222 229 237 243 250 256 260 263 264 266 269 265 270 272 272 271 270 269 268 266 264 262 261 260 259 258 257 256 255 254 252 251 250 251 253 255 258 260 263 266 269
215 217 222 228 237 245 252 259 265 268 269 271 273 274 273 275 277 277 277 276 275 273 271 268 265 262 259 258 256 255 254 253 252 250 249 248 249 250 252 255 258 261 264 268
220 223 229 236 245 252 259 266 271 275 277 277 278 280 280 280 281 281 280 279 277 276 274 271 269 265 260 256 254 252 251 250 248 247 246 246 246 248 250 253 256 259 262 265
224 229 235 243 251 258 264 269 274 278 280 281 281 284 285 287 287 287 285 284 282 280 277 274 270 267 263 257 252 249 248 247 245 244 243 243 244 245 248 251 254 257 260 264
228 235 240 248 256 262 267 272 276 279 283 285 286 288 293 295 295 293 291 289 287 285 282 277 272 267 262 255 249 246 244 242 241 240 241 241 241 243 246 249 252 256 259 263
230 238 244 251 257 263 269 274 278 281 285 289 291 294 302 301 297 294 292 291 291 289 286 281 275 267 260 253 246 242 240 238 237 237 238 238 239 241 244 248 251 255 259 263
232 239 246 253 259 265 270 276 280 284 288 291 295 302 306 300 296 295 294 292 290 288 285 281 274 265 257 251 243 237 234 233 232 233 233 235 237 239 243 247 251 255 259 264
233 240 248 254 259 265 272 279 283 286 290 296 300 309 309 302 301 300 298 295 292 287 283 278 271 262 253 246 239 232 228 227 226 227 228 231 234 238 243 247 251 255 260 266
232 239 247 254 261 267 274 279 285 291 299 305 310 312 312 307 306 304 302 300 296 290 283 276 267 258 249 240 232 224 221 220 220 221 224 228 232 237 242 247 252 257 262 268
231 237 244 254 263 270 276 280 288 297 306 313 320 320 321 316 314 313 311 307 303 296 287 277 263 250 240 231 222 215 212 212 213 216 221 226 231 237 242 248 253 259 265 271
230 236 243 252 261 270 278 286 296 305 314 323 329 332 328 326 325 326 324 320 315 307 291 271 247 227 220 214 208 205 203 205 208 213 219 225 231 237 243 249 256 262 269 274
226 230 236 248 259 268 275 288 299 312 323 330 338 342 341 340 340 341 341 339 336 334 327 222 195 191 189 190 191 191 194 198 204 210 217 225 231 238 245 253 260 266 272 277
221 225 232 244 258 265 278 292 308 325 332 337 341 346 351 354 357 1 5 11 20 43 76 105 126 143 156 166 173 178 185 193 200 208 217 226 234 242 250 258 264 270 275 277
217 224 232 237 244 257 278 298 317 332 335 338 343 352 357 1 8 15 22 33 51 66 81 97 111 122 134 146 156 167 177 186 196 206 217 228 239 249 256 262 268 272 274 278
216 222 227 228 236 257 285 307 325 338 341 344 347 354 2 8 13 22 31 41 57 71 82 93 105 115 124 134 144 155 166 179 193 208 223 235 245 252 258 264 269 274 278 282
214 220 225 229 237 260 290 309 326 335 344 346 348 354 359 5 13 23 33 44 57 70 81 90 102 112 122 131 140 149 160 179 199 217 231 239 247 256 263 270 274 278 282 286
219 225 227 229 236 249 280 300 313 326 335 341 346 353 0 9 16 23 35 47 60 72 83 93 103 112 122 134 148 162 179 195 210 224 238 248 257 264 270 276 280 285 288 292
223 226 225 227 236 250 268 289 305 315 325 334 339 349 358 6 16 25 32 42 54 69 83 93 106 119 133 147 163 179 195 213 228 241 252 260 268 274 279 283 288 291 294 297
222 225 223 227 236 250 265 282 295 304 315 326 332 339 348 354 7 18 30 37 47 56 67 82 99 114 136 162 184 203 223 238 250 260 268 274 279 284 288 291 294 296 299 301
223 226 228 232 241 252 265 277 286 292 302 312 319 324 330 336 346 4 27 39 49 55 60 71 81 88 99 146 240 258 267 273 277 280 284 287 289 292 294 297 299 301 303 305
224 227 230 236 244 252 261 269 277 287 293 301 307 314 317 323 328 343 7 22 35 44 45 52 56 39 346 310 294 288 287 287 288 290 292 294 296 298 300 302 304 306 308 310
Height
5664 5671 5676 5681 5686 5690 5693 5698 5703 5706 5708 5712 5716 5720 5724 5726 5729 5732 5734 5735 5737 5739 5741 5743 5746 5748 5750 5751 5753 5754 5755 5758 5759 5760 5762 5763 5764 5764 5765 5767 5769 5769 5769 5769
5661 5666 5671 5675 5680 5684 5688 5692 5696 5699 5701 5705 5709 5714 5717 5719 5722 5724 5725 5727 5729 5730 5732 5734 5736 5738 5740 5742 5743 5744 5745 5748 5750 5751 5753 5755 5755 5756 5758 5760 5761 5762 5762 5762
5656 5662 5666 5671 5675 5679 5683 5687 5690 5693 5696 5699 5702 5707 5711 5713 5714 5716 5717 5718 5718 5720 5722 5723 5725 5727 5729 5731 5732 5734 5735 5737 5739 5741 5743 5745 5747 5748 5750 5752 5753 5754 5754 5754
5652 5657 5662 5667 5671 5674 5678 5682 5685 5688 5690 5693 5696 5698 5707 5706 5706 5706 5707 5708 5708 5709 5710 5711 5713 5715 5717 5719 5721 5722 5724 5726 5728 5730 5733 5736 5738 5740 5742 5743 5744 5745 5746 5746
5650 5654 5659 5663 5667 5670 5674 5678 5680 5682 5684 5687 5690 5689 5698 5696 5697 5696 5695 5695 5695 5695 5696 5698 5699 5701 5703 5705 5707 5710 5712 5714 5716 5719 5724 5727 5729 5731 5733 5735 5736 5737 5738 5738
5646 5651 5656 5660 5663 5667 5670 5673 5675 5676 5677 5681 5682 5681 5688 5687 5685 5682 5681 5680 5680 5680 5681 5682 5684 5686 5688 5690 5693 5696 5698 5701 5704 5708 5712 5716 5719 5722 5724 5726 5727 5729 5730 5730
5644 5648 5652 5656 5660 5663 5666 5668 5670 5670 5671 5674 5673 5673 5679 5676 5672 5668 5666 5665 5664 5664 5664 5665 5667 5669 5672 5674 5677 5681 5684 5688 5691 5696 5701 5704 5708 5712 5715 5717 5719 5720 5721 5722
5640 5646 5649 5653 5656 5658 5660 5662 5664 5664 5664 5664 5663 5663 5667 5663 5659 5655 5653 5651 5649 5647 5647 5648 5649 5651 5654 5657 5661 5665 5669 5674 5678 5683 5688 5693 5698 5702 5705 5708 5710 5711 5713 5713
5637 5642 5645 5648 5651 5654 5655 5656 5657 5657 5655 5654 5655 5654 5655 5651 5646 5642 5638 5635 5632 5630 5629 5629 5630 5633 5636 5639 5644 5649 5654 5659 5664 5670 5676 5681 5687 5691 5695 5698 5700 5702 5704 5704
5633 5638 5641 5644 5646 5648 5649 5650 5651 5649 5647 5646 5646 5645 5643 5638 5633 5629 5623 5619 5615 5613 5611 5611 5612 5614 5617 5621 5626 5632 5638 5644 5651 5658 5665 5671 5676 5681 5685 5688 5691 5694 5695 5696
5630 5634 5638 5640 5641 5642 5644 5645 5643 5642 5641 5638 5635 5638 5633 5628 5622 5617 5612 5606 5601 5597 5595 5594 5595 5597 5600 5603 5609 5615 5622 5630 5638 5647 5655 5661 5667 5672 5676 5680 5683 5685 5687 5688
5626 5630 5633 5635 5636 5637 5638 5639 5637 5637 5634 5630 5627 5629 5625 5618 5611 5606 5601 5595 5588 5583 5580 5577 5578 5580 5583 5587 5593 5600 5608 5618 5628 5637 5645 5652 5658 5663 5667 5671 5674 5677 5679 5680
5623 5627 5629 5630 5633 5633 5633 5633 5631 5629 5627 5624 5620 5621 5616 5608 5601 5595 5588 5582 5575 5569 5565 5563 5563 5565 5568 5573 5579 5587 5597 5608 5619 5628 5636 5643 5649 5655 5659 5663 5666 5669 5671 5672
5620 5623 5625 5627 5626 5628 5629 5628 5626 5623 5621 5617 5615 5611 5608 5600 5592 5585 5578 5570 5563 5556 5552 5549 5550 5552 5556 5561 5568 5578 5589 5601 5611 5620 5628 5635 5642 5647 5652 5656 5659 5661 5663 5664
5616 5619 5620 5622 5622 5623 5624 5624 5622 5619 5616 5612 5609 5604 5599 5592 5585 5577 5569 5561 5553 5546 5541 5539 5540 5543 5548 5554 5562 5572 5584 5595 5604 5613 5622 5629 5636 5641 5646 5650 5652 5654 5655 5656
5613 5616 5617 5619 5619 5620 5620 5620 5618 5615 5612 5608 5604 5600 5595 5587 5580 5572 5563 5554 5546 5540 5535 5534 5535 5539 5544 5551 5560 5570 5580 5591 5600 5609 5617 5625 5631 5636 5640 5643 5646 5647 5648 5647
5610 5612 5615 5616 5616 5617 5618 5617 5615 5613 5610 5606 5602 5598 5592 5585 5577 5569 5561 5552 5544 5539 5535 5534 5536 5539 5545 5552 5560 5570 5580 5590 5599 5607 5615 5621 5626 5631 5635 5637 5639 5640 5640 5639
5608 5610 5612 5613 5615 5615 5617 5614 5612 5610 5607 5604 5600 5596 5591 5584 5577 5570 5562 5554 5547 5543 5540 5540 5541 5545 5550 5557 5564 5573 5582 5590 5598 5606 5612 5618 5623 5627 5630 5632 5633 5633 5632 5631
5606 5608 5609 5611 5611 5612 5613 5611 5609 5608 5606 5603 5600 5596 5591 5585 5579 5573 5566 5560 5555 5551 5549 5548 5549 5553 5557 5563 5570 5578 5585 5592 5599 5605 5611 5616 5619 5622 5624 5626 5626 5626 5624 5622
5604 5606 5608 5609 5610 5610 5612 5610 5608 5608 5605 5603 5599 5596 5592 5588 5583 5578 5572 5567 5563 5560 5559 5558 5559 5562 5566 5571 5576 5582 5588 5594 5600 5605 5609 5613 5616 5618 5619 5620 5619 5618 5616 5613
5602 5604 5606 5607 5607 5608 5609 5608 5607 5607 5606 5602 5599 5596 5593 5590 5587 5583 5578 5574 5571 5569 5567 5567 5568 5570 5573 5577 5581 5586 5591 5596 5600 5605 5608 5611 5612 5613 5613 5613 5612 5610 5607 5604
5601 5603 5604 5605 5606 5609 5607 5606 5606 5605 5603 5601 5599 5597 5594 5591 5588 5586 5583 5580 5578 5576 5575 5575 5576 5577 5579 5582 5585 5589 5593 5597 5600 5603 5606 5607 5608 5608 5607 5606 5604 5601 5598 5594
5599 5601 5603 5605 5607 5606 5605 5604 5604 5603 5602 5601 5599 5597 5595 5593 5591 5589 5586 5585 5583 5582 5581 5581 5582 5583 5585 5587 5590 5592 5595 5598 5600 5602 5603 5603 5603 5602 5601 5599 5596 5593 5590 5585
5597 5599 5600 5602 5603 5603 5603 5603 5602 5602 5601 5600 5598 5597 5595 5594 5592 5591 5589 5588 5587 5586 5585 5586 5586 5587 5589 5590 5592 5594 5596 5597 5598 5599 5599 5598 5597 5596 5594 5591 5589 5585 5581 5576
5595 5596 5598 5599 5600 5601 5601 5601 5601 5600 5599 5599 5598 5597 5595 5594 5593 5592 5591 5590 5589 5589 5588 5589 5589 5590 5590 5591 5592 5593 5594 5595 5595 5595 5594 5593 5592 5590 5587 5584 5581 5577 5572 5567
5592 5594 5595 5597 5598 5599 5599 5599 5599 5598 5598 5597 5597 5596 5595 5594 5593 5592 5592 5591 5590 5590 5590 5590 5590 5590 5591 5591 5591 5592 5592 5592 5591 5590 5589 5588 5585 5583 5580 5576 5573 5568 5563 5557